If you wish to contribute or participate in the discussions about articles you are invited to join SKYbrary as a registered user

 Actions

Aruba/Queen Beatrix International Airport

From SKYbrary Wiki

TNCA
Airport
ICAO: TNCA
Summary
Name Aruba/Queen Beatrix International Airport
Region South America and Caribbean
Territory Aruba AW.gif
Location Oranjestad, Aruba
Serving
Coordinates 12° 30' 5", -70° 0' 55.0001"
Close to Caribbean Sea
Runways
Designator Length Width Surface ROPS
11/29 2743 m8,999.344 ft 45 m147.638 ft ASP yes/yes


METAR
Observation TNCA 251900Z 13007KT 9999 RA BKN019 26/23 Q1014 NOSIG
Station Queen Beatrix Airport
Date/Time 25 February 2018 19:00:00
Wind direction 130°
Wind speed 07 kts
Lowest cloud amount broken clouds
Temperature 26°C
Dew point 23°C
Humidity 83%
QNH 1014 hPa
Weather condition rain

WX
Tag(s) Tropical Revolving Storm

Aruba/Queen Beatrix International Airport

ICAO: TNCA IATA: AUA

Description

International airport serving the island of Aruba in the Lesser Antilles, Caribbean. (Netherlands)

Climatology

Tropical Savanna climate (Köppen climate classification Aw), rarely affected directly by tropical storms as it is on the southern fringe of the Atlantic/Caribbean Hurricane Belt.

Maps

Terrain

Loading map...

Airport Layout

Loading map...


Accidents & Serious Incidents at or in vicinity of TNCA

None on SKYbrary